GW2341 Weather Reports


time (UTC)temp
C
wind
direction
speed
KPH
gust
KPH
rain 1hr
cm
rain 24hr
cm
rain mn
cm
humidity
%
barometer
mb
20260906072343 21 191 0.0 0.0 0.00 0.00 0.00 99 1012.2
20260906071838 21 191 0.0 0.0 0.00 0.00 0.00 99 1012.1
20260906071334 22 191 0.0 0.0 0.00 0.00 0.00 99 1012.3
20260906070830 21 191 0.0 0.0 0.00 0.00 0.00 99 1012.2
20260906070325 21 190 0.0 0.0 0.00 0.00 0.00 99 1012.0
20260906065820 21 190 0.0 0.0 0.00 0.00 0.00 99 1012.2
20260906065315 21 190 0.0 0.0 0.00 0.00 0.00 99 1012.0
20260906064811 21 190 0.0 0.0 0.00 0.00 0.00 99 1012.2
20260906064307 21 190 0.0 0.0 0.00 0.00 0.00 99 1012.4
20260906063801 21 190 0.0 0.0 0.00 0.00 0.00 99 1012.3
20260906063257 21 190 0.0 0.0 0.00 0.00 0.00 99 1012.4
20260906062752 21 190 0.0 0.0 0.00 0.00 0.00 99 1012.5
20260906062251 21 190 0.0 0.0 0.00 0.00 0.00 99 1012.8
20260906061746 21 190 0.0 0.0 0.00 0.00 0.00 99 1012.9
20260906061243 21 190 0.0 0.0 0.00 0.00 0.00 99 1012.9
20260906060738 21 190 0.0 0.0 0.00 0.00 0.00 99 1012.8
20260906060236 21 190 0.0 0.0 0.00 0.00 0.00 99 1013.0
20260906055731 21 187 0.0 0.0 0.00 0.00 0.00 99 1013.0
20260906055226 21 187 0.0 0.0 0.00 0.00 0.00 99 1013.2
20260906054721 21 187 0.0 0.0 0.00 0.00 0.00 99 1013.3
20260906054216 21 187 0.0 0.0 0.00 0.00 0.00 99 1013.2
20260906053713 21 187 0.0 0.0 0.00 0.00 0.00 99 1013.5
20260906053208 21 187 0.0 0.0 0.00 0.00 0.00 99 1013.4
20260906052703 21 187 0.0 0.0 0.00 0.00 0.00 99 1013.3
20260906052159 22 187 0.0 0.0 0.00 0.00 0.00 99 1013.1
20260906051656 22 187 0.0 0.0 0.00 0.00 0.00 99 1013.4
20260906051155 22 187 0.0 0.0 0.00 0.00 0.00 99 1013.5
20260906050651 22 187 0.0 0.0 0.00 0.00 0.00 99 1013.3
20260906050146 22 187 0.0 0.0 0.00 0.00 0.00 99 1013.5
20260906045644 22 187 0.0 0.0 0.00 0.00 0.00 99 1013.4
20260906045139 22 187 0.0 0.0 0.00 0.00 0.00 99 1013.5
20260906044636 22 186 0.0 0.0 0.00 0.00 0.00 99 1013.7
20260906044131 22 186 0.0 0.0 0.00 0.00 0.00 99 1013.4
20260906043627 22 185 0.0 0.0 0.00 0.00 0.00 99 1013.5
20260906043122 22 185 0.0 0.0 0.00 0.00 0.00 99 1013.4
20260906042621 22 185 0.0 0.0 0.00 0.00 0.00 99 1013.3
20260906042115 22 185 0.0 0.0 0.00 0.00 0.00 99 1013.5
20260906041612 22 185 0.0 0.0 0.00 0.00 0.00 98 1013.3
20260906041106 22 185 0.0 0.0 0.00 0.00 0.00 98 1013.4
20260906040602 22 185 0.0 0.0 0.00 0.00 0.00 98 1013.4
20260906040057 22 185 0.0 0.0 0.00 0.43 0.43 98 1013.7
20260906035552 22 185 0.0 0.0 0.00 0.43 0.43 98 1013.5
20260906035048 22 185 0.0 0.0 0.00 0.43 0.43 98 1013.6
20260906034547 22 185 0.0 0.0 0.00 0.43 0.43 98 1013.6
20260906034037 22 185 0.0 0.0 0.00 0.43 0.43 98 1013.6
20260906033532 22 185 0.0 0.0 0.00 0.43 0.43 98 1013.6
20260906033028 22 187 0.0 0.0 0.00 0.43 0.43 98 1013.6
20260906032524 22 186 0.0 0.0 0.00 0.43 0.43 98 1013.8
20260906032024 22 181 0.0 0.0 0.00 0.43 0.43 98 1013.8
20260906031520 22 166 0.0 0.0 0.00 0.43 0.43 98 1013.9
20260906031015 22 166 0.0 0.0 0.00 0.43 0.43 98 1013.6
20260906030514 22 166 0.0 0.0 0.00 0.43 0.43 97 1013.7
20260906030009 22 166 0.0 0.0 0.00 0.43 0.43 97 1013.4
20260906025508 22 167 0.0 0.0 0.00 0.43 0.43 97 1013.5
20260906025006 22 166 0.0 0.0 0.00 0.43 0.43 97 1013.5
20260906024501 22 167 0.0 0.0 0.00 0.43 0.43 97 1013.4
20260906023956 22 167 0.0 0.0 0.00 0.43 0.43 97 1013.5
20260906023452 22 167 0.0 0.0 0.00 0.43 0.43 97 1013.3
20260906022947 22 167 0.0 0.0 0.00 0.43 0.43 96 1013.4
20260906022443 22 166 0.0 0.0 0.00 0.43 0.43 96 1013.5
20260906021937 22 166 0.0 0.0 0.00 0.43 0.43 96 1013.5
20260906021432 22 167 0.0 0.0 0.00 0.43 0.43 96 1013.4
20260906020926 22 166 0.0 0.0 0.00 0.43 0.43 96 1013.5
20260906020421 22 167 0.0 0.0 0.00 0.43 0.43 96 1013.7
20260906015920 22 167 0.0 0.0 0.00 0.43 0.43 97 1013.8
20260906015415 22 166 0.0 0.0 0.00 0.43 0.43 97 1013.7
20260906014914 22 166 0.0 0.0 0.00 0.43 0.43 97 1013.7
20260906014409 22 165 0.0 0.0 0.00 0.43 0.43 97 1013.7
20260906013905 22 189 1.6 3.2 0.00 0.43 0.43 98 1013.7
20260906013401 22 183 0.0 0.0 0.00 0.43 0.43 98 1013.6
20260906012856 22 183 0.0 0.0 0.00 0.43 0.43 98 1013.7
20260906012351 22 183 0.0 0.0 0.00 0.43 0.43 98 1013.6
20260906011850 22 183 0.0 0.0 0.00 0.43 0.43 98 1013.4
20260906011345 22 183 0.0 0.0 0.00 0.43 0.43 98 1013.5
20260906010841 22 183 0.0 0.0 0.00 0.43 0.43 97 1013.4
20260906010337 23 183 0.0 0.0 0.00 0.43 0.43 97 1013.6
20260906005833 23 183 0.0 0.0 0.00 0.43 0.43 97 1013.6
20260906005332 23 183 0.0 0.0 0.00 0.43 0.43 97 1013.4
20260906004830 23 183 0.0 0.0 0.00 0.43 0.43 96 1013.1
20260906004330 23 183 0.0 0.0 0.00 0.43 0.43 96 1013.1
20260906003825 23 165 0.0 0.0 0.00 0.43 0.43 96 1012.7
20260906003321 23 165 0.0 0.0 0.00 0.43 0.43 96 1012.8
20260906002816 23 165 0.0 0.0 0.00 0.43 0.43 96 1012.9
20260906002315 23 165 0.0 0.0 0.00 0.43 0.43 96 1012.6
20260906001811 23 165 0.0 0.0 0.00 0.43 0.43 95 1012.9
20260906001306 23 169 0.0 0.0 0.00 0.43 0.43 94 1012.7
20260906000801 23 171 0.0 0.0 0.00 0.43 0.43 94 1012.7
20260906000256 24 173 0.0 0.0 0.00 0.43 0.43 93 1012.9
20260905235751 24 173 0.0 0.0 0.00 0.43 0.43 93 1012.9
20260905235251 24 174 0.0 0.0 0.00 0.43 0.43 92 1013.2
20260905234746 25 174 0.0 3.2 0.00 0.43 0.43 92 1013.3
20260905234241 25 179 0.0 0.0 0.00 0.43 0.43 92 1013.0
20260905233736 25 180 0.0 0.0 0.00 0.43 0.43 90 1012.8
20260905233235 25 182 0.0 0.0 0.00 0.43 0.43 88 1012.7
20260905232730 25 183 0.0 0.0 0.00 0.43 0.43 89 1012.8
20260905232227 25 160 0.0 0.0 0.00 0.43 0.43 90 1012.9
20260905231722 25 159 0.0 0.0 0.00 0.43 0.43 90 1012.6
20260905231217 25 148 0.0 0.0 0.00 0.43 0.43 90 1012.6
20260905230713 25 183 0.0 0.0 0.00 0.43 0.43 90 1012.4
20260905230211 25 167 0.0 0.0 0.00 0.43 0.43 90 1012.4
20260905225711 25 192 0.0 0.0 0.00 0.43 0.43 90 1012.6
20260905225206 25 192 0.0 0.0 0.00 0.43 0.43 89 1012.9
20260905224705 25 181 0.0 0.0 0.00 0.43 0.43 89 1012.7
20260905224200 25 167 0.0 0.0 0.00 0.43 0.43 89 1012.6
20260905223656 25 188 0.0 3.2 0.00 0.43 0.43 88 1012.7
20260905223153 25 192 1.6 3.2 0.00 0.43 0.43 87 1012.8
20260905222649 25 190 0.0 0.0 0.00 0.43 0.43 87 1012.7
20260905222149 25 210 0.0 1.6 0.00 0.43 0.43 86 1012.6
20260905221644 25 158 0.0 1.6 0.00 0.43 0.43 85 1012.6
20260905221141 25 209 1.6 3.2 0.00 0.43 0.43 84 1012.7
20260905220636 26 175 1.6 3.2 0.00 0.43 0.43 83 1012.5
20260905220132 26 195 1.6 3.2 0.00 0.43 0.43 82 1012.5
20260905215632 26 206 0.0 1.6 0.00 0.43 0.43 84 1012.5
20260905215127 26 154 0.0 0.0 0.00 0.43 0.43 85 1012.5
20260905214623 26 144 0.0 1.6 0.00 0.43 0.43 86 1012.4
20260905214123 26 157 0.0 0.0 0.00 0.43 0.43 89 1012.5
20260905213619 26 145 0.0 3.2 0.00 0.43 0.43 89 1012.5
20260905213114 26 178 0.0 0.0 0.00 0.43 0.43 90 1012.9
20260905212609 26 180 0.0 0.0 0.00 0.43 0.43 90 1013.0
20260905212108 25 168 0.0 0.0 0.00 0.43 0.43 90 1013.3
20260905211604 25 192 0.0 0.0 0.00 0.43 0.43 91 1013.1
20260905211059 25 207 3.2 4.8 0.00 0.43 0.43 91 1013.1
20260905210555 25 158 1.6 1.6 0.00 0.43 0.43 93 1013.0
20260905210050 24 141 1.6 3.2 0.00 0.43 0.43 95 1013.0
20260905205549 24 169 0.0 0.0 0.00 0.43 0.43 96 1013.1
20260905205049 24 169 0.0 0.0 0.00 0.43 0.43 96 1012.8
20260905204543 23 160 0.0 0.0 0.00 0.43 0.43 95 1012.7
20260905204039 23 330 0.0 1.6 0.00 0.43 0.43 96 1012.7
20260905203538 23 150 0.0 0.0 0.00 0.43 0.43 96 1013.3
20260905203034 23 172 0.0 0.0 0.00 0.43 0.43 97 1013.0
20260905202529 23 171 0.0 0.0 0.00 0.43 0.43 97 1013.2
20260905202024 22 156 0.0 3.2 0.00 0.43 0.43 97 1013.1
20260905201520 22 159 1.6 3.2 0.00 0.43 0.43 97 1012.9
20260905201019 22 152 1.6 3.2 0.00 0.43 0.43 96 1013.1
20260905200515 22 170 0.0 3.2 0.00 0.43 0.43 96 1012.9
20260905200014 22 180 0.0 8.0 0.00 0.43 0.43 96 1013.8
20260905195508 22 165 0.0 8.0 0.30 0.43 0.43 95 1014.0
20260905195004 21 133 0.0 3.2 0.30 0.41 0.41 93 1013.9
20260905194458 21 165 1.6 4.8 0.00 0.36 0.36 92 1013.9
20260905193957 22 161 3.2 11.3 0.00 0.36 0.36 92 1014.0
20260905193452 21 33 4.8 14.5 1.37 0.36 0.36 92 1013.5
20260905192947 21 84 6.4 35.4 2.16 0.36 0.36 92 1013.4
20260905192442 25 181 4.8 17.7 0.48 0.08 0.08 81 1014.1
20260905191937 26 125 3.2 12.9 0.00 0.00 0.00 65 1013.8
20260905191432 28 276 17.7 22.5 0.00 0.00 0.00 65 1014.0
20260905190931 30 229 9.7 16.1 0.00 0.00 0.00 67 1013.8
20260905190429 33 182 4.8 17.7 0.00 0.00 0.00 60 1013.7
20260905185928 36 185 1.6 8.0 0.00 0.00 0.00 47 1013.0
20260905185424 36 242 4.8 8.0 0.00 0.00 0.00 49 1012.6
20260905184922 35 263 6.4 9.7 0.00 0.00 0.00 50 1012.5
20260905184417 35 184 1.6 1.6 0.00 0.00 0.00 49 1012.5
20260905183915 35 147 1.6 8.0 0.00 0.00 0.00 51 1012.7
20260905183410 35 126 3.2 8.0 0.00 0.00 0.00 51 1012.8
20260905182905 35 142 1.6 4.8 0.00 0.00 0.00 52 1012.8
20260905182404 36 157 4.8 4.8 0.00 0.00 0.00 48 1012.9
20260905181900 35 242 3.2 4.8 0.00 0.00 0.00 48 1012.9
20260905181355 36 191 0.0 3.2 0.00 0.00 0.00 48 1013.0
20260905180854 36 197 3.2 3.2 0.00 0.00 0.00 49 1013.2
20260905180349 36 179 0.0 3.2 0.00 0.00 0.00 52 1013.4
20260905175843 35 157 0.0 1.6 0.00 0.00 0.00 51 1013.4
20260905175338 36 162 1.6 4.8 0.00 0.00 0.00 54 1013.6
20260905174833 35 165 0.0 4.8 0.00 0.00 0.00 53 1013.6
20260905174329 35 146 4.8 9.7 0.00 0.00 0.00 52 1013.6
20260905173824 36 171 4.8 8.0 0.00 0.00 0.00 50 1013.7
20260905173321 35 164 0.0 1.6 0.00 0.00 0.00 53 1013.5
20260905172821 35 92 1.6 3.2 0.00 0.00 0.00 52 1013.7
20260905172318 35 125 3.2 4.8 0.00 0.00 0.00 54 1013.6
20260905171815 36 142 3.2 4.8 0.00 0.00 0.00 51 1013.7
20260905171311 36 99 0.0 1.6 0.00 0.00 0.00 52 1013.9
20260905170808 35 174 0.0 4.8 0.00 0.00 0.00 53 1014.0
20260905170303 35 162 4.8 9.7 0.00 0.00 0.00 51 1014.0
20260905165802 35 126 3.2 4.8 0.00 0.00 0.00 54 1014.2
20260905165258 36 165 1.6 3.2 0.00 0.00 0.00 53 1014.1
20260905164757 35 172 1.6 8.0 0.00 0.00 0.00 57 1014.3
20260905164252 35 207 3.2 8.0 0.00 0.00 0.00 55 1014.4
20260905163748 35 154 1.6 3.2 0.00 0.00 0.00 56 1014.6
20260905163244 35 144 3.2 8.0 0.00 0.00 0.00 55 1014.9
20260905162740 34 117 4.8 4.8 0.00 0.00 0.00 55 1014.7
20260905162239 35 182 0.0 1.6 0.00 0.00 0.00 58 1014.9
20260905161734 34 168 0.0 4.8 0.00 0.00 0.00 57 1014.8
20260905161233 33 140 0.0 4.8 0.00 0.00 0.00 57 1014.9
20260905160731 33 115 3.2 8.0 0.00 0.00 0.00 57 1014.7
20260905160226 33 140 3.2 3.2 0.00 0.00 0.00 57 1014.9
20260905155720 33 220 4.8 8.0 0.00 0.00 0.00 59 1015.0
20260905155219 33 191 0.0 1.6 0.00 0.00 0.00 59 1014.9
20260905154714 33 198 0.0 4.8 0.00 0.00 0.00 61 1015.1
20260905154209 32 180 0.0 3.2 0.00 0.00 0.00 63 1015.0
20260905153705 32 104 0.0 3.2 0.00 0.00 0.00 62 1015.3
20260905153200 32 135 1.6 3.2 0.00 0.00 0.00 64 1015.3
20260905152655 32 218 4.8 8.0 0.00 0.00 0.00 64 1015.2
20260905152150 33 235 1.6 4.8 0.00 0.00 0.00 65 1015.3
20260905151644 33 160 0.0 0.0 0.00 0.00 0.00 64 1015.3
20260905151140 33 179 0.0 3.2 0.00 0.00 0.00 66 1015.3
20260905150635 32 153 0.0 0.0 0.00 0.00 0.00 67 1015.3
20260905150134 31 161 0.0 4.8 0.00 0.00 0.00 71 1015.3
20260905145632 31 230 4.8 8.0 0.00 0.00 0.00 69 1015.4
20260905145131 31 168 1.6 1.6 0.00 0.00 0.00 71 1015.1
20260905144626 31 187 0.0 4.8 0.00 0.00 0.00 71 1015.2
20260905144125 31 208 1.6 1.6 0.00 0.00 0.00 69 1015.3
20260905143620 30 195 0.0 3.2 0.00 0.00 0.00 72 1015.3
20260905143115 30 198 3.2 3.2 0.00 0.00 0.00 72 1015.4
20260905142613 30 226 4.8 4.8 0.00 0.00 0.00 74 1015.3
20260905142108 30 218 0.0 4.8 0.00 0.00 0.00 76 1015.5
20260905141607 30 181 0.0 1.6 0.00 0.00 0.00 75 1015.4
20260905141104 29 157 0.0 3.2 0.00 0.00 0.00 78 1015.4
20260905140559 29 171 0.0 4.8 0.00 0.00 0.00 76 1015.6
20260905140058 28 183 0.0 1.6 0.00 0.00 0.00 78 1015.6
20260905135553 29 197 3.2 4.8 0.00 0.00 0.00 78 1015.6
20260905135054 28 169 0.0 0.0 0.00 0.00 0.00 79 1015.6
20260905134549 28 189 1.6 4.8 0.00 0.00 0.00 80 1015.7
20260905134047 28 159 0.0 1.6 0.00 0.00 0.00 79 1015.7
20260905133543 28 198 0.0 1.6 0.00 0.00 0.00 81 1015.8
20260905133043 28 177 0.0 4.8 0.00 0.00 0.00 81 1015.3
20260905132542 27 202 0.0 3.2 0.00 0.00 0.00 82 1015.6
20260905132037 27 181 0.0 3.2 0.00 0.00 0.00 83 1015.7
20260905131533 27 208 1.6 3.2 0.00 0.00 0.00 84 1015.6
20260905131028 27 191 1.6 1.6 0.00 0.00 0.00 84 1015.6
20260905130527 26 200 4.8 4.8 0.00 0.00 0.00 85 1015.5
20260905130023 26 240 4.8 4.8 0.00 0.00 0.00 86 1015.6
20260905125522 26 266 4.8 4.8 0.00 0.00 0.00 87 1015.6
20260905125017 26 185 1.6 4.8 0.00 0.00 0.00 88 1015.6
20260905124514 26 195 0.0 1.6 0.00 0.00 0.00 88 1015.3
20260905124010 26 177 0.0 1.6 0.00 0.00 0.00 89 1015.4
20260905123505 25 186 0.0 0.0 0.00 0.00 0.00 89 1015.5
20260905123001 25 187 0.0 1.6 0.00 0.00 0.00 90 1015.4
20260905122455 25 202 1.6 3.2 0.00 0.00 0.00 90 1015.2
20260905121950 25 209 3.2 3.2 0.00 0.00 0.00 91 1015.4
20260905121445 25 180 0.0 0.0 0.00 0.00 0.00 91 1015.2
20260905120944 25 186 0.0 0.0 0.00 0.00 0.00 92 1015.2
20260905120439 25 180 0.0 0.0 0.00 0.00 0.00 92 1015.3
20260905115934 24 173 0.0 0.0 0.00 0.00 0.00 93 1015.2
20260905115433 24 187 0.0 0.0 0.00 0.00 0.00 93 1015.1
20260905114929 24 183 0.0 0.0 0.00 0.00 0.00 94 1015.1
20260905114428 23 181 0.0 1.6 0.00 0.00 0.00 94 1015.1
20260905113921 23 185 0.0 3.2 0.00 0.00 0.00 95 1015.1
20260905113417 23 180 0.0 0.0 0.00 0.00 0.00 95 1014.9
20260905112912 23 320 0.0 0.0 0.00 0.00 0.00 95 1015.0
20260905112408 23 188 0.0 0.0 0.00 0.00 0.00 95 1014.8
20260905111903 23 188 1.6 3.2 0.00 0.00 0.00 95 1014.8
20260905111402 23 207 0.0 1.6 0.00 0.00 0.00 95 1014.6
20260905110856 23 187 0.0 0.0 0.00 0.00 0.00 95 1014.6
20260905110350 23 188 0.0 0.0 0.00 0.00 0.00 95 1014.6
20260905105846 23 194 1.6 3.2 0.00 0.00 0.00 95 1014.4
20260905105344 23 193 0.0 0.0 0.00 0.00 0.00 95 1014.6
20260905104839 23 181 0.0 0.0 0.00 0.00 0.00 94 1014.5
20260905104336 23 188 0.0 0.0 0.00 0.00 0.00 94 1014.3
20260905103835 23 188 0.0 0.0 0.00 0.00 0.00 94 1014.3
20260905103330 23 185 0.0 0.0 0.00 0.00 0.00 94 1014.2
20260905102826 23 183 0.0 0.0 0.00 0.00 0.00 93 1014.2
20260905102323 23 184 0.0 0.0 0.00 0.00 0.00 93 1014.1
20260905101823 23 181 0.0 0.0 0.00 0.00 0.00 93 1014.0
20260905101321 23 188 0.0 1.6 0.00 0.00 0.00 93 1014.1
20260905100815 24 189 1.6 3.2 0.00 0.00 0.00 92 1014.0
20260905100311 23 208 1.6 3.2 0.00 0.00 0.00 93 1014.1
20260905095810 23 191 0.0 0.0 0.00 0.00 0.00 93 1014.0
20260905095306 23 203 0.0 1.6 0.00 0.00 0.00 93 1013.9
20260905094800 23 192 0.0 0.0 0.00 0.00 0.00 92 1014.1
20260905094255 24 190 0.0 1.6 0.00 0.00 0.00 92 1014.2
20260905093754 24 196 0.0 1.6 0.00 0.00 0.00 92 1013.8
20260905093250 24 194 0.0 0.0 0.00 0.00 0.00 92 1013.9
20260905092745 24 196 0.0 0.0 0.00 0.00 0.00 92 1014.0
20260905092240 24 185 0.0 0.0 0.00 0.00 0.00 92 1013.9
20260905091735 24 188 0.0 0.0 0.00 0.00 0.00 91 1014.1
20260905091230 24 186 1.6 1.6 0.00 0.00 0.00 91 1014.1
20260905090729 24 203 0.0 0.0 0.00 0.00 0.00 91 1014.0
20260905090225 24 190 0.0 1.6 0.00 0.00 0.00 91 1014.1
20260905085724 24 187 0.0 3.2 0.00 0.00 0.00 92 1014.1
20260905085218 24 184 0.0 0.0 0.00 0.00 0.00 91 1014.0
20260905084719 24 191 1.6 1.6 0.00 0.00 0.00 91 1014.1
20260905084218 24 185 0.0 0.0 0.00 0.00 0.00 91 1014.3
20260905083714 24 192 0.0 0.0 0.00 0.00 0.00 91 1014.1
20260905083209 23 183 0.0 0.0 0.00 0.00 0.00 92 1014.3
20260905082705 23 185 0.0 0.0 0.00 0.00 0.00 92 1014.2
20260905082200 23 179 0.0 0.0 0.00 0.00 0.00 92 1014.1
20260905081655 23 166 0.0 0.0 0.00 0.00 0.00 91 1014.3
20260905081150 24 166 0.0 0.0 0.00 0.00 0.00 91 1014.3
20260905080649 24 166 0.0 0.0 0.00 0.00 0.00 91 1014.4
20260905080149 24 178 0.0 0.0 0.00 0.00 0.00 90 1014.5
20260905075649 25 178 0.0 0.0 0.00 0.00 0.00 89 1014.3
20260905075148 25 152 0.0 0.0 0.00 0.00 0.00 89 1014.5
20260905074647 25 184 0.0 1.6 0.00 0.00 0.00 89 1014.4
20260905074143 25 185 0.0 3.2 0.00 0.00 0.00 88 1014.2
20260905073639 25 200 4.8 4.8 0.00 0.00 0.00 89 1014.3
20260905073134 24 185 3.2 4.8 0.00 0.00 0.00 90 1014.2
20260905072633 24 209 0.0 3.2 0.00 0.00 0.00 91 1014.4